Regional Weather Roundup
Issued by NWS

Home | Current Version | Previous Version | Text Only | Print | Product List | Glossary Off
Versions: 1 2 3 4 5 6 7 8 9 10 11 12 13 14 15 16 17 18 19 20 21 22 23 24 25 26 27 28 29 30 31 32 33 34 35 36 37 38 39 40 41 42 43 44 45 46 47 48 49 50

000
ASUS45 KABQ 201001
RWRNM
WEATHER ROUNDUP FOR NEW MEXICO
NATIONAL WEATHER SERVICE ALBUQUERQUE NM
300 AM MST SAT DEC 20 2014

NOTE: "FAIR" MEANS FEW OR NO CLOUDS BELOW 12,000 FEET AGL WITH NO
       SIGNIFICANT WEATHER OR OBSTRUCTIONS TO VISION.

      THIS PRODUCT IS RELEASED AS TWO VERSIONS.  ONE VERSION NEAR
      THE TOP OF THE HOUR CONTAINING PRELIMINARY DATA FROM ALBUQUERQUE
      AND OTHER STATIONS.  A FINAL VERSION WITH ADDITIONAL DATA IS
      ISSUED ABOUT 10 MINUTES AFTER THE HOUR.

NMZ501-503-504-510>518-201100-
NORTHWEST PLATEAU/NORTHCENTRAL MOUNTAINS

CITY           SKY/WX    TMP DP  RH WIND       PRES   REMARKS
FARMINGTON     MOCLDY    25  22  88 CALM      30.19S
SANTA FE       PTCLDY    25  18  74 NW10      30.14S WCI  15
TAOS           PTCLDY    12   9  85 N5        30.17S WCI   4

$$
NMZ402-403-502-505>509-201100-
WESTCENTRAL MOUNTAINS/SOUTHWEST MOUNTAINS

CITY           SKY/WX    TMP DP  RH WIND       PRES   REMARKS
GALLUP         CLOUDY    23  21  92 E5        30.20F WCI  17
GRANTS         CLEAR     21  20  95 NW6       30.21F WCI  14
SILVER CITY    CLEAR     28  27  93 N9        30.18S WCI  20

$$
NMZ407-409-411-412-201100-
SOUTHERN DESERTS

CITY           SKY/WX    TMP DP  RH WIND       PRES   REMARKS
DEMING         CLEAR     28  26  92 CALM      30.16S
HOLLOMAN AFB   CLEAR     27  24  89 NE3       30.15S
ALAMOGORDO     CLEAR     30  27  86 N3        30.16S
T OR C         CLEAR     30  22  72 NW7       30.16S WCI  23

$$
NMZ519>523-201100-
CENTRAL VALLEYS/CENTRAL HIGHLANDS

CITY           SKY/WX    TMP DP  RH WIND       PRES   REMARKS
ALBUQUERQUE    PTCLDY    32  24  72 N7        30.18S WCI  26
DOUBLE EAGLE   PTCLDY    27  22  80 NW7       30.18R WCI  20
MORIARTY ARPT  FAIR      18  15  88 N5        30.13F WCI  11
CLINES CORNERS PTCLDY    25  18  74 NW22      30.06R WCI  10
BELEN          FAIR      23  21  94 NW6       30.19S WCI  15
SOCORRO        NOT AVBL

$$
NMZ524>526-539-540-201100-
SOUTHCENTRAL MOUNTAINS

CITY           SKY/WX    TMP DP  RH WIND       PRES   REMARKS
RUIDOSO        PTCLDY    28  19  69 W3        30.13F

$$
NMZ527>531-201100-
NORTHEAST HIGHLANDS/NORTHEAST PLAINS

CITY           SKY/WX    TMP DP  RH WIND       PRES   REMARKS
LAS VEGAS      PTCLDY    28  10  46 N7        30.06S WCI  21
RATON          CLEAR     21  16  81 E6        30.06R WCI  13
CLAYTON        PTCLDY    28  23  81 W9        30.06S WCI  19

$$
NMZ532>537-201100-
EASTCENTRAL PLAINS

CITY           SKY/WX    TMP DP  RH WIND       PRES   REMARKS
TUCUMCARI      PTCLDY    25  20  81 W5        30.07S WCI  19
CANNON AFB     FOG       27  27  99 S5        30.10F VSB 1/4 WCI  22
CLOVIS AIRPORT CLOUDY    28  27  93 S8        30.10F VSB 1/2 WCI  20

$$
NMZ028-029-538-201100-
SOUTHEAST PLAINS

CITY           SKY/WX    TMP DP  RH WIND       PRES   REMARKS
ROSWELL        PTCLDY    26  18  71 S3        30.12S
ARTESIA        PTCLDY    28  25  86 W6        30.14S WCI  22
CARLSBAD       CLEAR     31  24  75 NW6       30.12S WCI  25
HOBBS          FOG       36  36 100 CALM      30.14F VSB<1/4


$$



USA.gov is the U.S. government's official web portal to all federal, state and local government web resources and services.